Home > Weather > Euskirchen > Past weeks

Flag for Germany Past Weather in Euskirchen, North Rhine-Westphalia, Germany — Yesterday and Last 2 Weeks

Now
64 °F

Partly sunny.


Feels Like: 64 °F
Forecast: 57 / 71 °F
Wind: 6 mph from Southwest

Location: Noervenich

Current Time: May 28, 2016 at 10:24:09 PM

Latest Report: May 28, 2016 at 9:20 PM


Visibility: N/A

Pressure: 29.83 "Hg

Humidity: 88%

Dew Point: 61 °F

Location of EuskirchenLocation

Past Weather in Euskirchen — Graph

°F

Euskirchen Temperature Yesterday

Maximum temperature yesterday: 72 °F (at 4:20 PM)
Minimum temperature yesterday: 57 °F (at 2:20 AM)
Average temperature yesterday: 64 °F

High & Low Weather Summary for the Past Weeks

 TemperatureHumidityPressure
High75 °F (May 21, 5:20 PM)100% (May 26, 5:20 AM)30.15 "Hg (May 26, 5:20 AM)
Low41 °F (May 15, 2:20 AM)34% (May 17, 1:20 PM)29.65 "Hg (May 13, 8:20 PM)
Average57 °F71%29.96 "Hg
* Reported May 13 8:20 PM — May 28 8:20 PM, Euskirchen, Weather by CustomWeather, © 2016

Note: Actual official high and low records may vary slightly from our data, if they occured in-between our weather recording intervals... More about our weather records

Advertising

Euskirchen Weather History for the Previous 24 Hours

Scroll right to see more
 ConditionsComfort  
Time TempWeatherWind HumidityBarometerVisibility
8:20 PM
Sat, May 28
64 °FBroken clouds.1 mph88%29.83 "HgN/A
7:20 PM68 °FBroken clouds.1 mph73%29.83 "HgN/A
6:20 PM72 °FBroken clouds.2 mph57%29.83 "HgN/A
5:20 PM73 °FBroken clouds.1 mph53%29.86 "HgN/A
4:20 PM73 °FBroken clouds.3 mph57%29.86 "HgN/A
3:20 PM72 °FScattered clouds.2 mph61%29.86 "HgN/A
2:20 PM72 °FScattered clouds.3 mph65%29.89 "HgN/A
1:20 PM70 °FBroken clouds.2 mph73%29.92 "HgN/A
12:20 PM66 °FBroken clouds.2 mph78%29.92 "Hg6 mi
11:20 AM63 °FFog.2 mph88%29.95 "Hg3 mi
10:46 AM61 °FFog.2 mph94%29.95 "Hg2 mi
10:20 AM59 °FFog.2 mph100%29.95 "Hg1 mi
9:46 AM59 °FFog.1 mph100%29.95 "Hg1 mi
9:20 AM59 °FFog.1 mph100%29.95 "Hg0 mi
8:20 AM59 °FFog.1 mph94%29.95 "Hg0 mi
7:20 AM57 °FFog.1 mph100%29.95 "Hg0 mi
6:20 AM57 °FFog.1 mph100%29.95 "Hg0 mi
6:00 AM57 °FFog.No wind100%29.95 "Hg0 mi
5:20 AM57 °FCool.No wind100%29.98 "Hg0 mi
4:20 AM57 °FCool.5 mph94%29.98 "Hg0 mi
3:20 AM55 °FCool.2 mph100%29.95 "Hg2 mi
2:20 AM55 °FCool.2 mph100%29.95 "Hg2 mi
1:20 AM57 °FCool.3 mph94%29.98 "Hg5 mi
12:20 AM59 °FCool.5 mph94%29.95 "HgN/A
11:20 PM
Fri, May 27
59 °FCool.5 mph94%29.98 "HgN/A
10:20 PM59 °FCool.3 mph82%29.98 "Hg4 mi
Weather by CustomWeather, © 2016

See weather overviewHow to use our weather pages